Wind_Speed
20 18 17 18 18 19 18 17 18 16 15 14 11 9 10 10 9 9 9 5 5 6 7 8 9 8 10 9 11 12 11 12 12 14 8 7 6 7 7 8 11 9 11
16 17 18 18 18 19 19 17 19 19 17 14 12 12 10 10 8 9 8 6 7 8 9 10 11 10 11 12 13 15 14 12 15 14 14 11 10 8 9 10 11 10 13
14 17 17 17 18 19 19 19 18 17 16 15 14 14 13 10 10 9 9 10 11 11 12 13 13 12 14 13 12 13 15 16 15 17 16 11 9 9 8 11 12 14 13
17 18 18 18 19 20 20 20 19 18 17 16 14 13 14 13 13 13 13 14 14 15 14 14 14 15 15 16 16 16 17 15 16 16 18 14 14 11 11 11 14 16 16
15 16 18 18 18 18 18 18 17 18 18 17 16 16 16 16 17 16 17 16 17 16 15 15 16 17 18 18 17 17 17 17 18 17 19 13 16 13 11 12 15 12 15
18 17 17 17 16 16 15 16 16 17 19 19 20 19 18 17 17 19 17 14 15 16 17 17 17 18 19 22 24 25 23 19 20 19 21 21 14 16 16 16 14 12 7
18 18 17 16 16 16 17 18 18 18 18 19 17 17 17 15 16 19 19 17 17 17 17 17 18 19 18 19 20 22 23 26 28 25 23 24 22 21 19 19 17 17 18
18 17 16 16 16 18 19 19 19 19 19 19 18 16 15 14 20 19 16 14 14 16 16 17 18 19 18 18 18 21 22 22 23 25 26 28 27 26 22 23 22 20 18
19 18 18 19 18 17 17 18 17 17 17 18 17 15 15 14 18 14 9 8 11 13 14 16 17 20 20 22 19 22 24 25 24 26 28 27 26 27 26 20 19 17 16
20 21 20 20 21 21 20 20 20 19 17 16 15 15 14 17 16 11 8 7 9 12 14 16 18 19 20 23 18 20 24 25 23 23 24 24 23 26 30 27 25 21 19
16 18 20 21 20 20 21 20 19 18 16 15 12 8 9 7 5 5 4 3 6 10 15 18 17 16 20 23 25 25 21 20 18 22 23 23 23 21 18 20 25 27 22
12 17 20 22 23 22 20 19 18 17 16 14 13 10 7 5 6 2 1 1 6 7 13 16 17 20 24 25 23 22 25 25 19 18 21 23 21 17 18 18 21 24 28
11 14 18 20 23 25 26 24 22 22 19 17 17 15 11 9 4 4 2 5 8 10 10 14 18 18 19 19 18 18 16 15 16 19 19 21 19 19 18 19 18 19 24
12 14 15 18 21 24 26 28 28 28 25 22 19 18 17 14 10 6 2 4 8 10 13 12 15 15 14 14 15 15 13 13 16 17 14 15 16 14 14 14 13 13 17
10 9 6 9 8 13 15 16 21 22 25 26 23 20 19 18 16 11 4 1 4 6 9 9 12 14 14 12 12 12 14 13 11 12 11 10 8 11 13 11 11 10 14
8 9 9 9 9 9 9 10 15 17 22 21 21 16 16 16 18 17 6 1 3 7 3 8 10 11 13 12 10 12 12 14 13 12 9 8 9 9 11 11 11 10 11
10 10 9 12 12 13 13 15 16 16 14 20 23 20 18 20 18 14 10 3 2 1 6 6 6 9 10 10 9 11 13 13 11 8 7 7 8 9 9 9 8 7 10
12 12 10 12 15 16 17 18 15 17 18 16 22 20 17 14 10 13 9 5 6 7 5 5 5 6 8 8 10 10 10 11 11 8 7 8 8 6 7 7 7 8 11
15 14 13 15 14 16 18 18 17 17 18 19 17 18 17 12 9 9 9 7 3 3 3 3 3 5 5 6 8 10 10 9 11 10 9 9 10 8 8 7 7 7 8
18 18 14 15 14 13 17 16 15 17 21 20 17 15 14 14 11 10 11 9 6 5 4 2 2 3 3 4 5 8 9 10 11 11 10 9 10 9 9 11 10 8 7
16 14 18 19 14 13 16 19 21 20 18 17 18 16 18 18 15 13 11 10 9 7 4 3 2 2 1 2 4 5 7 7 8 9 10 10 11 10 10 9 9 8 7
15 15 16 19 17 17 15 17 18 18 17 20 16 15 17 16 12 11 12 11 10 8 6 4 4 1 1 2 3 4 5 7 8 8 9 9 7 7 4 4 6 6 6
18 16 19 18 18 17 21 19 17 16 17 17 17 17 16 16 16 13 12 12 12 10 9 6 4 3 2 1 2 3 5 6 5 5 7 8 7 8 8 8 8 4 2
18 19 17 22 20 20 19 22 18 18 17 17 16 15 17 17 13 12 11 11 11 11 9 7 5 4 3 4 4 5 4 3 4 5 5 6 7 5 7 6 7 6 8
16 17 18 19 23 21 23 22 22 22 21 21 19 15 14 9 9 9 10 9 8 6 5 4 2 2 2 4 6 9 9 11 12 10 7 9 10 9 9 11 12 11 11
16 19 21 21 20 22 22 23 23 22 21 18 14 15 14 14 10 8 6 4 3 2 3 4 5 4 3 6 7 10 12 13 13 14 14 13 13 15 13 14 14 18 19
Wind_Direction
201 198 200 206 206 206 210 211 214 215 218 221 227 228 231 229 232 239 238 230 247 244 256 252 250 250 255 245 249 251 249 247 257 264 250 246 238 234 239 229 232 228 238
203 202 201 201 207 208 212 212 212 218 223 223 227 233 233 228 234 239 246 253 243 248 252 254 261 261 263 262 250 256 262 263 261 262 260 246 238 242 242 227 225 225 226
196 199 203 206 206 210 213 215 215 216 222 223 225 226 229 230 230 235 239 244 249 255 260 256 258 255 254 259 258 255 254 248 246 261 268 246 248 240 233 232 232 229 230
197 200 198 206 211 215 215 213 214 217 220 224 227 230 232 235 241 248 246 246 251 257 255 251 252 252 252 253 253 253 256 263 256 257 261 257 242 240 238 239 234 235 233
206 205 204 206 209 215 213 213 210 216 220 223 227 231 236 238 245 244 242 245 249 253 252 251 253 254 252 248 254 257 257 251 259 261 264 250 249 226 235 250 245 244 244
209 212 206 201 207 211 209 206 208 214 217 221 227 233 240 246 247 245 241 253 256 258 260 258 258 258 258 259 254 252 250 254 255 257 257 271 276 255 248 247 243 231 243
208 205 203 201 198 203 201 201 206 212 217 222 229 235 240 242 249 250 252 255 262 264 265 269 272 271 268 261 263 261 256 252 247 250 255 258 260 254 255 243 234 234 240
203 201 197 201 201 199 200 200 201 205 210 215 222 224 232 240 245 247 254 265 263 268 270 272 271 272 270 270 269 267 261 255 250 246 245 251 255 257 252 246 248 244 251
196 202 197 196 199 200 205 202 202 203 207 211 215 218 227 237 254 265 257 257 267 275 276 275 274 272 270 276 272 265 264 260 258 253 251 249 251 253 249 245 238 237 239
203 195 201 198 197 193 199 204 203 202 207 217 220 220 224 223 241 228 238 267 272 283 286 280 282 281 276 274 283 281 276 271 266 264 259 252 258 256 250 241 239 224 230
233 208 198 200 203 201 196 198 201 205 208 206 211 210 209 206 238 239 265 263 290 302 302 300 294 279 273 272 266 264 260 264 277 277 266 261 259 255 247 243 236 232 226
250 225 208 199 199 198 198 197 197 199 199 188 176 186 195 186 196 231 311 324 328 323 304 298 297 296 301 299 289 279 270 266 268 261 267 264 258 255 246 247 243 240 236
265 242 228 213 202 194 189 191 192 186 184 179 180 177 179 184 200 187 217 346 340 331 309 302 297 306 313 309 303 292 286 267 265 256 254 258 255 256 252 250 254 244 245
270 252 232 222 204 202 198 190 180 181 182 180 181 179 174 174 181 194 241 307 337 346 331 324 316 319 321 312 310 307 278 262 266 251 257 272 266 266 252 241 231 241 237
278 251 214 204 197 172 186 207 198 195 184 175 175 179 177 173 167 164 176 301 330 344 359 345 337 329 325 328 330 327 324 325 290 275 261 268 278 284 275 254 242 232 231
267 236 218 201 205 211 186 192 194 189 178 167 163 172 177 167 164 147 141 166 355 41 331 353 353 340 327 321 336 338 343 333 329 329 335 320 300 284 270 261 248 244 245
265 265 227 211 224 214 195 182 168 173 177 175 175 169 173 166 156 143 120 173 75 345 273 349 344 341 325 330 351 358 346 341 339 338 339 334 325 313 320 292 283 270 268
253 243 253 242 230 217 204 194 195 193 183 174 175 172 169 165 163 120 157 179 224 219 280 322 346 336 329 342 3 1 0 3 4 353 357 357 346 336 332 323 323 315 286
243 240 249 254 236 219 218 224 222 203 193 179 179 183 165 164 172 168 188 221 236 252 276 272 312 329 343 343 20 18 23 10 21 22 22 19 10 355 350 343 332 316 300
236 244 246 229 223 200 205 208 189 185 176 176 177 180 161 183 190 200 211 219 231 249 250 274 304 304 331 342 17 40 31 33 39 43 32 29 27 24 16 12 11 1 359
228 227 220 224 214 195 208 208 191 185 178 174 186 181 174 189 196 199 208 208 224 229 229 251 262 280 305 332 4 17 38 39 40 47 45 41 38 38 36 36 30 23 21
220 214 199 215 209 209 202 193 185 178 184 190 194 171 193 209 229 212 212 225 227 228 231 221 241 269 351 2 357 2 27 30 26 30 32 30 26 29 22 42 62 67 36
223 204 192 214 215 199 188 184 190 190 195 201 201 178 186 212 226 228 227 223 225 226 223 221 225 229 233 307 339 2 8 7 15 23 13 3 9 11 0 359 353 354 103
220 208 206 204 186 191 190 187 190 195 202 201 206 204 194 205 221 224 226 218 217 220 218 218 226 246 241 267 285 307 315 304 330 340 342 341 334 338 331 326 322 336 315
208 203 196 195 182 195 186 185 189 196 200 208 204 200 203 193 191 180 182 192 204 208 209 230 277 305 315 299 273 259 272 279 276 277 291 301 299 302 300 303 303 298 292
199 199 200 188 185 185 178 184 202 191 193 201 198 193 184 179 169 161 160 175 209 153 96 82 50 50 5 301 296 294 296 297 288 281 277 276 281 290 288 288 291 302 297
Height
785 787 792 796 800 804 807 809 812 814 815 817 820 823 823 825 826 827 827 827 827 829 829 830 830 831 831 830 829 827 826 826 824 823 824 826 825 826 826 827 828 829 829
782 786 790 793 797 799 802 805 808 810 812 815 816 819 820 822 823 824 824 824 826 826 826 827 827 827 828 827 826 825 824 824 823 821 822 822 823 823 824 824 824 826 828
780 783 787 790 793 795 798 802 804 807 809 811 813 815 817 819 820 821 821 821 822 822 822 822 822 822 822 822 823 823 821 820 821 820 817 818 818 819 819 820 821 823 824
775 778 780 785 788 791 795 798 802 804 806 809 811 812 814 815 816 817 817 818 817 817 817 817 817 817 817 817 818 818 817 817 816 815 816 812 814 815 816 816 816 817 819
774 775 777 781 784 787 790 795 797 800 803 805 808 809 810 811 811 812 812 812 812 812 812 812 811 811 812 812 813 811 812 812 811 810 809 807 808 811 811 812 812 812 813
770 772 774 776 780 783 785 789 793 796 799 800 802 804 806 806 806 807 809 809 809 809 808 807 806 805 805 804 803 804 805 806 805 804 802 799 800 803 805 806 807 807 809
765 767 771 773 776 781 783 786 789 792 795 797 800 802 803 803 804 804 805 806 806 805 805 804 803 802 802 800 798 797 796 795 796 797 797 797 797 798 798 799 800 801 800
761 763 766 771 773 776 779 781 783 786 790 793 795 797 798 800 798 799 799 801 803 802 801 800 799 798 797 796 794 792 790 789 787 786 787 787 789 791 792 793 794 794 794
753 759 761 765 769 773 777 778 781 784 786 788 790 792 793 794 793 795 795 797 798 798 798 797 796 794 793 791 789 787 784 781 780 780 779 779 780 781 785 786 786 789 787
749 751 756 760 763 766 771 774 776 779 781 785 788 788 788 787 788 790 791 794 793 792 793 791 790 790 790 788 787 786 783 780 777 774 772 771 771 770 773 776 778 779 780
749 749 750 755 759 762 765 768 772 775 777 780 784 788 788 789 790 792 791 791 791 790 789 788 787 783 782 781 779 777 774 772 772 773 769 765 763 764 764 766 768 770 771
748 747 746 748 752 756 761 765 767 771 774 776 779 784 788 787 786 791 792 790 788 787 787 785 782 779 776 774 773 770 768 767 765 763 765 762 758 758 758 758 761 762 762
746 745 745 746 745 747 750 755 760 763 767 770 773 775 780 784 787 786 788 788 786 785 785 783 779 774 771 768 766 764 764 761 759 757 754 756 753 752 753 752 753 755 756
742 741 740 743 742 743 744 744 747 750 754 759 765 767 768 774 779 784 787 787 785 784 781 780 778 774 770 767 764 762 760 756 753 751 750 749 749 749 747 747 748 749 751
741 739 740 741 742 740 742 749 745 747 747 749 754 760 763 765 766 772 780 784 784 780 779 779 777 775 772 769 764 760 758 753 750 748 745 745 746 746 745 744 745 746 747
741 739 739 741 743 745 744 747 749 750 751 751 756 761 763 762 765 760 771 779 781 778 780 778 777 777 774 770 763 759 756 754 750 747 744 744 744 743 743 741 742 742 744
738 737 736 739 740 742 743 746 750 754 753 750 755 760 763 762 759 760 762 775 778 776 778 776 775 776 775 770 762 758 756 754 750 747 745 744 743 741 741 740 740 741 741
733 734 734 733 735 737 740 744 747 749 750 754 759 761 762 763 763 753 766 772 774 772 774 774 772 773 774 769 765 760 756 753 749 746 745 743 743 741 740 739 738 739 739
728 729 731 731 731 734 737 740 742 746 748 752 757 759 755 756 760 762 768 770 767 767 770 769 769 771 771 768 762 761 757 755 751 749 746 744 743 742 741 739 739 739 739
720 723 725 727 728 731 734 738 739 741 744 746 747 750 748 756 759 764 768 767 765 765 767 766 767 767 767 766 761 757 757 755 751 747 747 745 744 742 742 741 741 740 741
712 714 719 721 722 726 729 730 732 735 737 739 745 743 747 754 752 756 759 762 763 762 763 762 765 764 762 762 758 754 751 751 749 746 745 745 744 744 743 742 742 743 743
705 706 711 713 716 719 721 725 728 731 735 738 738 739 746 750 750 750 753 756 759 761 760 760 761 760 760 759 758 755 750 749 748 744 742 741 741 741 742 741 741 742 743
698 700 706 709 712 715 719 723 726 726 726 730 731 736 743 747 747 746 747 750 754 756 758 757 757 757 758 758 758 756 752 751 749 745 744 745 742 741 741 741 740 739 742
692 693 699 703 707 713 715 718 723 726 726 727 730 732 735 738 739 741 744 747 751 753 754 753 753 753 754 755 756 754 752 751 750 748 746 744 743 741 740 740 739 739 739
686 690 695 699 701 704 709 716 720 722 723 725 726 728 730 732 737 740 743 746 749 749 750 751 751 753 753 756 752 750 751 751 750 746 745 746 744 742 741 740 738 737 736
684 688 691 695 696 701 706 709 712 714 717 720 723 725 727 732 735 739 743 747 749 749 750 751 751 749 751 753 748 748 748 747 744 743 743 743 742 740 738 738 737 736 734